TimeIST,TemperatureF,Dew PointF,Humidity,Sea Level PressureIn,VisibilityMPH,Wind Direction,Wind SpeedMPH,Gust SpeedMPH,PrecipitationIn,Events,Conditions,WindDirDegrees,DateUTC
12:00 AM,78.8,60.8,54,29.89,1.9,ENE,4.6,-,N/A,,Haze,60,2012-10-08 18:30:00
1:00 AM,77.0,60.8,57,29.89,1.9,East,4.6,-,N/A,,Haze,80,2012-10-08 19:30:00
2:00 AM,-9999,-9999,N/A,29.86,1.9,Calm,Calm,-,N/A,,Haze,0,2012-10-08 20:30:00
2:30 AM,75,60,50,29.80,1,Calm,Calm,,,,Haze,,2012-10-08 21:00:00
2:30 AM,75.2,60.8,61,29.86,1.9,Calm,Calm,-,N/A,,Haze,0,2012-10-08 21:00:00
3:00 AM,75.2,60.8,61,29.86,1.9,Variable,2.3,-,N/A,,Haze,0,2012-10-08 21:30:00
4:00 AM,73.4,60.8,65,29.86,1.9,Calm,Calm,-,N/A,,Haze,0,2012-10-08 22:30:00
5:00 AM,71.6,60.8,69,29.86,1.9,Calm,Calm,-,N/A,,Haze,0,2012-10-08 23:30:00
5:30 AM,73,59,53,29.81,1,Calm,Calm,,,,Haze,,2012-10-09 00:00:00
5:30 AM,71.6,60.8,69,29.86,1.9,Calm,Calm,-,N/A,,Haze,0,2012-10-09 00:00:00
6:00 AM,71.6,59.0,64,29.89,1.9,Calm,Calm,-,N/A,,Haze,0,2012-10-09 00:30:00
7:00 AM,71.6,59.0,64,29.89,1.9,Calm,Calm,-,N/A,,Haze,0,2012-10-09 01:30:00
8:00 AM,77.0,59.0,54,29.92,1.9,Calm,Calm,-,N/A,,Haze,0,2012-10-09 02:30:00
8:30 AM,78,60,44,29.83,1,Calm,Calm,,,,Haze,,2012-10-09 03:00:00
9:00 AM,82.4,59.0,45,29.92,1.9,Calm,Calm,-,N/A,,Haze,0,2012-10-09 03:30:00
10:30 AM,87.8,57.2,35,29.92,1.9,ESE,6.9,-,N/A,,Haze,120,2012-10-09 05:00:00
11:00 AM,87.8,57.2,35,29.92,2.5,SE,4.6,-,N/A,,Haze,130,2012-10-09 05:30:00
11:30 AM,90,57,23,29.81,2,SE,5.8,,,,Haze,140,2012-10-09 06:00:00
12:00 PM,91.4,57.2,31,29.89,2.5,Variable,3.5,-,N/A,,Haze,0,2012-10-09 06:30:00
12:30 PM,91.4,57.2,31,29.86,2.5,SW,5.8,-,N/A,,Haze,230,2012-10-09 07:00:00
1:00 PM,91.4,57.2,31,29.86,2.5,Variable,4.6,-,N/A,,Haze,0,2012-10-09 07:30:00
2:30 PM,93,57,20,29.72,2,NW,4.6,,,,Haze,320,2012-10-09 09:00:00
4:00 PM,93.2,57.2,30,29.80,3.1,Variable,3.5,-,N/A,,Haze,0,2012-10-09 10:30:00
5:30 PM,89,60,27,29.72,2,East,3.5,,,,Haze,90,2012-10-09 12:00:00
8:00 PM,84.2,60.8,45,29.83,1.9,Calm,Calm,-,N/A,,Haze,0,2012-10-09 14:30:00
8:30 PM,83,65,45,29.75,1,Calm,Calm,,,,Haze,,2012-10-09 15:00:00
9:00 PM,82.4,60.8,48,29.86,1.9,Calm,Calm,-,N/A,,Haze,0,2012-10-09 15:30:00
10:00 PM,80.6,62.6,54,29.86,1.6,Calm,Calm,-,N/A,,Haze,0,2012-10-09 16:30:00
11:00 PM,80.6,62.6,54,29.86,1.6,NNE,3.5,-,N/A,,Haze,30,2012-10-09 17:30:00
11:30 PM,80,64,48,29.79,1,NE,5.8,,,,Haze,50,2012-10-09 18:00:00